Retour au catalogue

STARLINK-2505

ActifCommunicationsVLEO
NORAD 48411·PAYLOAD·🇺🇸 United States

Lancé May 4, 2021 depuis Cape Canaveral Space Force Station

Loading…

Prochains Passages (prochaines 24 heures)

TLE

FraisSource: CelesTrak SupGP

Époque: Sep 14, 2026, 20:55 UTC

1 48411C 21038BL  26257.87201389 -.00008477  00000+0 -27270-3 0  2577
2 48411  53.1588 133.4443 0001064  88.8569  21.6175 15.31693092    19

Suivez STARLINK-2505 en temps réel avec AllMySat

Download on the App Store